HXMT (HUIYAN)

Last updated on Thu Nov 21 2024 00:02:13 GMT+0000 (Coordinated Universal Time)

1 42758U 17034A 24325.59834061 .00010842 00000+0 51578-3 0 9996 2 42758 43.0125 126.5881 0010046 41.0752 319.0851 15.19183081410586
UTC large
Height (km)
Speed (km/s)
/
Latitude / Longitude
Inclination (degrees)
Orbital Period (minutes)
Azimuth
Elevation
Range (km)
Doppler Factor

Next 0 passes for location: London (51.5072 / 0.1276)

Sorry there are no passes over London.